Location: Unspecified
(47.7670°N, 8.8522°E)
Time: 03:11:00
(UTC+01:00)

Tiangong - Pass Details

Date: 06 December 2022
Orbit: 383 x 386 km, 41.5° (Epoch: 03 February)

Event Time Altitude Azimuth Distance (km) Brightness Sun altitude
Rises 17:07:59 0° 242° (WSW) 2,247 4.7 -5.9°
Maximum altitude 17:12:53 24° 172° (S) 851 -0.2 -6.7°
Drops below altitude 10° 17:15:29 10° 116° (ESE) 1,399 0.3 -7.0°
Enters shadow 17:16:55 - 106° (ESE) 1,917 0.9 -7.3°
